Skip Page Navigation
NASA JPL Caltech
NASA Logo - Jet Propulsion Laboratory + View the NASA Portal
+ Center for Near-Earth Object Studies
JPL Home Earth Solar System Stars & Galaxies Technology
JPL Solar System Dynamics
BODIES ORBITS EPHEMERIDES TOOLS PHYSICAL DATA DISCOVERY FAQ SITE MAP
JPL Small-Body Database Browser
Search: [ help ]  
85543 (1997 WP46)
Classification: Main-belt Asteroid          SPK-ID: 2085543
Ephemeris | Orbit Diagram | Orbital Elements | Mission Design | Physical Parameters | Discovery Circumstances ]

[ hide orbit diagram ]

For accurate long-term ephemerides, please instead use our Horizons system.This orbit viewer was implemented using two-body methods, and hence should not be used for determining accurate long-term trajectories (over several years or decades) or planetary encounter circumstances.


[ revert to old Java-based viewer ]

Orbital Elements at Epoch 2459000.5 (2020-May-31.0) TDB
Reference: JPL 24 (heliocentric ecliptic J2000)
 Element Value Uncertainty (1-sigma)   Units 
e .2075040476652571 3.1109e-08  
a 2.67999629810574 1.0873e-08 au
q 2.123886218520894 8.2795e-08 au
i .3984573519204295 4.298e-06 deg
node 277.649409662363 0.00063303 deg
peri 129.6982150029159 0.00063317 deg
M 57.71425977460608 1.1878e-05 deg
tp 2458743.590391565731
(2019-Sep-17.09039157)
5.2668e-05 TDB
period 1602.506198598612
4.39
9.7526e-06
2.67e-08
d
yr
n .2246481170024922 1.3672e-09 deg/d
Q 3.236106377690586 1.313e-08 au
  Orbit Determination Parameters
   # obs. used (total)      767  
   data-arc span      9542 days (26.12 yr)  
   first obs. used      1993-12-17  
   last obs. used      2020-02-01  
   planetary ephem.      DE431  
   SB-pert. ephem.      SB431-N16  
   condition code      0  
   norm. resid. RMS      .56729  
   source      ORB  
   producer      Otto Matic  
   solution date      2020-Feb-23 20:34:08  

Additional Information
 Earth MOID = 1.13379 au 
 Jupiter MOID = 2.15743 au 
 T_jup = 3.346 
[ show covariance matrix ]

Ephemeris | Orbit Diagram | Orbital Elements | Mission Design | Physical Parameters | Discovery Circumstances ]

Physical Parameter Table
Parameter Symbol Value Units Sigma Reference Notes
absolute magnitude H 15.7   n/a MPO453286  

85543 (1997 WP46)          Discovered 1997-Nov-26 by LINEAR at Socorro
Reference: 20040830/Numbers.arcLast Updated: 2004-09-06

Alternate Designations
 1997 WP46 = 2001 QY211 
Ephemeris | Orbit Diagram | Orbital Elements | Mission Design | Physical Parameters | Discovery Circumstances ]
ABOUT SSD CREDITS/AWARDS PRIVACY/COPYRIGHT GLOSSARY LINKS
FirstGov 2020-Oct-28 01:11 UT
(server date/time)  
NASA Home Page
Site Manager:   Ryan S. Park
Webmaster  Alan B. Chamberlin